Location: Wilhelmshaven
(53.5279°N, 8.1063°E)
Time: 21:34:06
(UTC+02:00)

ISS - Pass Details

Date: 12 July 2022
Orbit: 412 x 420 km, 51.6° (Epoch: 19 August)

Event Time Altitude Azimuth Distance (km) Brightness Sun altitude
Rises 02:26:37 0° 266° (W) 2,358 -0.1 -13.6°
Reaches altitude 10° 02:28:43 10° 263° (W) 1,496 -1.2 -13.5°
Maximum altitude 02:32:02 64° 182° (S) 469 -3.8 -13.4°
Drops below altitude 10° 02:35:23 10° 100° (E) 1,501 -0.9 -13.3°
Sets 02:37:29 0° 98° (E) 2,367 0.2 -13.2°
